Regional Weather Roundup
Issued by NWS State College, PA

Home | Current Version | Previous Version | Text Only | Print | Product List | Glossary On
Versions: 1 2 3 4 5 6 7 8 9 10 11 12 13 14 15 16 17 18 19 20 21 22 23 24 25 26 27 28 29 30 31 32 33 34 35 36 37 38 39 40 41 42 43 44 45 46 47 48 49 50
725
ASUS41 KCTP 180903
RWRCTP

REGIONAL WEATHER ROUNDUP
NATIONAL WEATHER SERVICE STATE COLLEGE PA
400 AM EST WED JAN 18 2017

Note: "fair" indicates few or no clouds below 12,000 feet with no
significant weather and/or obstructions to visibility.

* = STATION THAT DOES NOT REPORT PRECIPITATION /E.G. RAIN...SNOW...ETC/
    THUNDER OR FOG.

PAZ002>004-007>009-013>016-020>023-029>032-181000-
WESTERN PENNSYLVANIA

CITY           SKY/WX    TMP DP  RH WIND       PRES   REMARKS
ERIE           FOG       38  37  97 W16G24    29.93R VSB 1
MEADVILLE      CLOUDY    39  37  92 W12       29.91S
FRANKLIN*        N/A     41  37  87 W10       29.92R
NEW CASTLE     CLOUDY    43  42  97 W7        29.94S
BEAVER COUNTY  NOT AVBL
BUTLER*        CLOUDY    45  39  81 W9        29.95R
PITTSBURGH INT CLOUDY    46  43  89 W5        29.93R
PITTSBURGH     CLOUDY    46  39  76 W13G20    29.93R
INDIANA*       CLOUDY    46  43  87 W8G16     29.92S
LATROBE        CLOUDY    46  43  87 W15       29.93S
WASHINGTON CO* CLOUDY    45  41  87 SW12      29.95F
$$

PAZ004>006-010>012-017>019-024>028-033>037-041-042-045-046-049>053-181000-
CENTRAL PENNSYLVANIA

CITY           SKY/WX    TMP DP  RH WIND       PRES   REMARKS
BRADFORD       CLOUDY    39  39 100 W12       29.85R FOG
DUBOIS         CLOUDY    44  39  82 W14G22    29.86S
CLEARFIELD     CLOUDY    45  42  89 W13G18    29.86S
JOHNSTOWN      LGT RAIN  44  42  93 W14G20    29.86S
ALTOONA        CLOUDY    46  43  89 W6        29.88S
STATE COLLEGE  CLOUDY    35  35 100 SW5       29.87S FOG
WILLIAMSPORT   FOG       37  36  96 CALM      29.87F VSB 1
SELINSGROVE    FOG       35  35 100 CALM      29.89F VSB 1/4
FT INDIANTOWN  CLOUDY    37  37 100 CALM      29.89F
CAPITAL CITY   CLOUDY    39  37  92 SE3       29.90F FOG
HARRISBURG     FOG       38  38 100 CALM      29.89F VSB 1
YORK           FOG       39  39 100 NE5       29.89S VSB 1/4
$$

PAZ038>040-043-044-047-048-054-055-060>062-067>071-181000-
EASTERN PENNSYLVANIA

CITY           SKY/WX    TMP DP  RH WIND       PRES   REMARKS
SCRANTON       CLOUDY    37  35  92 CALM      29.85F
MOUNT POCONO   FOG       33  31  92 E3        29.84F VSB 1/2
ALLENTOWN      LGT RAIN  37  34  89 NE5       29.89F
QUAKERTOWN*    CLOUDY    36  36 100 N3        29.89F
READING        CLOUDY    38  36  92 N5        29.89S VSB 1
LANCASTER      CLOUDY    40  40 100 CALM      29.89S FOG
COATESVILLE    CLOUDY    39  39 100 N6        29.89S FOG
POTTSTOWN      CLOUDY    38  37  97 CALM      29.91S
BLUE BELL      CLOUDY    37  37 100 CALM      29.88S
DOYLESTOWN     LGT RAIN  39  38  96 N3        29.88S
WILLOW GROVE   NOT AVBL
NORTH PHILA    CLOUDY    42  40  92 N6        29.90F
PHILADELPHIA   LGT RAIN  43  41  93 N5        29.89F
$$




USA.gov is the U.S. government's official web portal to all federal, state and local government web resources and services.